Date String (YYYY-MM-DD hh:mm:ss) UTC,Instrument flags,Ambient pressure (hPa),Sample flow (lpm),Bypass flow (lpm),Sample temperature (°C),Ambient temperature (°C),ASC tube jacket temperature (°C),LED temperature (°C),Box temperature (°C),Sample RH (%),Span deviation,Mass concentration (μg/m³),Mass concentration (μg/m³),Mass concentration (μg/m³)
DateTimeUTC,F1_M11,P_M11,Q1_M11,Q2_M11,T1_M11,T2_M11,T3_M11,T4_M11,T5_M11,U1_M11,ZSPAN_M11,X0_M11,X2_M11,X1_M11
2021-10-23 10:00:00,,0819.9,4.99,0.00,27.5,26.7,00.0,36.5,29.2,08.4,0000.0,0010.44,0003.62,0002.42
2021-10-23 10:01:00,,0819.9,5.00,0.00,27.4,26.7,00.0,36.5,29.3,08.2,0000.0,0010.14,0003.59,0002.40
2021-10-23 10:02:00,,0819.9,5.00,0.00,27.4,26.6,00.0,36.5,29.3,08.3,0000.0,0010.50,0003.56,0002.40
2021-10-23 10:03:00,,0819.9,5.02,0.00,27.4,26.6,00.0,36.5,29.2,08.5,0000.0,0011.16,0003.56,0002.40
2021-10-23 10:04:00,,0819.8,5.00,0.00,27.4,26.6,00.0,36.5,29.2,08.3,0000.0,0011.29,0003.56,0002.39
2021-10-23 10:05:00,,0819.9,5.00,0.00,27.4,26.6,00.0,36.5,29.2,08.3,0000.0,0011.10,0003.50,0002.34
2021-10-23 10:06:00,,0819.8,5.01,0.00,27.4,26.6,00.0,36.5,29.2,08.3,0000.0,0010.57,0003.44,0002.27
2021-10-23 10:07:00,,0819.8,5.00,0.00,27.4,26.6,00.0,36.5,29.2,08.3,0000.0,0009.93,0003.37,0002.21
2021-10-23 10:08:00,,0819.9,4.99,0.00,27.4,26.6,00.0,36.5,29.1,08.5,0000.0,0009.84,0003.35,0002.19
2021-10-23 10:09:00,,0819.8,5.01,0.00,27.3,26.5,00.0,36.5,29.2,08.6,0000.0,0009.88,0003.38,0002.21
2021-10-23 10:10:00,,0819.8,5.00,0.00,27.3,26.5,00.0,36.5,29.1,08.6,0000.0,0009.95,0003.41,0002.23
2021-10-23 10:11:00,,0819.8,5.02,0.00,27.3,26.5,00.0,36.5,29.1,08.5,0000.0,0010.34,0003.39,0002.22
2021-10-23 10:12:00,,0819.7,4.99,0.00,27.3,26.6,00.0,36.5,29.1,08.5,0000.0,0010.27,0003.38,0002.22
2021-10-23 10:13:00,,0819.7,5.00,0.00,27.3,26.6,00.0,36.5,29.1,08.2,0000.0,0009.88,0003.36,0002.20
2021-10-23 10:14:00,,0819.8,4.99,0.00,27.4,26.6,00.0,36.5,29.2,08.1,0000.0,0009.43,0003.33,0002.17
2021-10-23 10:15:00,,0819.9,5.00,0.00,27.4,26.6,00.0,36.5,29.2,08.2,0000.0,0008.88,0003.28,0002.14
2021-10-23 10:16:00,,0819.9,5.01,0.00,27.4,26.6,00.0,36.5,29.2,08.2,0000.0,0008.80,0003.28,0002.15
2021-10-23 10:17:00,,0819.9,5.00,0.00,27.4,26.6,00.0,36.5,29.2,08.4,0000.0,0008.34,0003.30,0002.16
2021-10-23 10:18:00,,0819.9,4.99,0.00,27.4,26.6,00.0,36.5,29.2,08.6,0000.0,0008.50,0003.31,0002.16
2021-10-23 10:19:00,,0819.8,5.00,0.00,27.4,26.6,00.0,36.5,29.2,08.7,0000.0,0008.65,0003.34,0002.18
2021-10-23 10:20:00,,0819.8,5.01,0.00,27.3,26.6,00.0,36.5,29.2,08.6,0000.0,0008.74,0003.34,0002.16
2021-10-23 10:21:00,,0819.9,5.00,0.00,27.3,26.6,00.0,36.5,29.2,08.7,0000.0,0008.98,0003.37,0002.16
2021-10-23 10:22:00,,0819.9,5.00,0.00,27.3,26.6,00.0,36.4,29.1,08.8,0000.0,0009.03,0003.42,0002.18
2021-10-23 10:23:00,,0819.9,5.01,0.00,27.4,26.6,00.0,36.4,29.2,08.8,0000.0,0009.65,0003.50,0002.20
2021-10-23 10:24:00,,0819.9,4.98,0.00,27.3,26.6,00.0,36.4,29.2,08.8,0000.0,0009.53,0003.55,0002.24
2021-10-23 10:25:00,,0819.8,5.00,0.00,27.3,26.5,00.0,36.4,29.1,08.8,0000.0,0009.82,0003.58,0002.28
2021-10-23 10:26:00,,0819.8,5.01,0.00,27.3,26.5,00.0,36.4,29.1,08.7,0000.0,0009.90,0003.63,0002.32
2021-10-23 10:27:00,,0819.7,5.00,0.00,27.3,26.5,00.0,36.4,29.1,08.7,0000.0,0010.09,0003.66,0002.33
2021-10-23 10:28:00,,0819.8,4.99,0.00,27.3,26.6,00.0,36.4,29.1,08.3,0000.0,0010.24,0003.65,0002.33
2021-10-23 10:29:00,,0819.8,5.02,0.00,27.3,26.6,00.0,36.4,29.1,08.7,0000.0,0010.13,0003.63,0002.33
2021-10-23 10:30:00,,0819.9,4.99,0.00,27.3,26.6,00.0,36.4,29.2,09.0,0000.0,0010.07,0003.63,0002.35
2021-10-23 10:31:00,,0819.8,5.00,0.00,27.3,26.6,00.0,36.4,29.2,09.0,0000.0,0009.82,0003.62,0002.40
2021-10-23 10:32:00,,0819.9,5.01,0.00,27.3,26.6,00.0,36.4,29.2,08.6,0000.0,0010.09,0003.60,0002.43
2021-10-23 10:33:00,,0819.9,5.00,0.00,27.4,26.6,00.0,36.4,29.2,08.4,0000.0,0010.04,0003.54,0002.40
2021-10-23 10:34:00,,0819.9,4.99,0.00,27.4,26.6,00.0,36.4,29.2,08.3,0000.0,0009.38,0003.45,0002.37
2021-10-23 10:35:00,,0819.8,5.00,0.00,27.4,26.6,00.0,36.4,29.2,07.9,0000.0,0009.32,0003.40,0002.31
2021-10-23 10:36:00,,0819.9,4.99,0.00,27.3,26.6,00.0,36.4,29.2,08.0,0000.0,0008.58,0003.33,0002.26
2021-10-23 10:37:00,,0819.9,5.00,0.00,27.4,26.6,00.0,36.4,29.2,08.3,0000.0,0008.40,0003.29,0002.22
2021-10-23 10:38:00,,0819.9,5.00,0.00,27.4,26.6,00.0,36.4,29.2,08.5,0000.0,0008.72,0003.30,0002.22
2021-10-23 10:39:00,,0819.9,5.00,0.00,27.3,26.6,00.0,36.4,29.2,08.7,0000.0,0008.88,0003.31,0002.25
2021-10-23 10:40:00,,0819.9,5.01,0.00,27.3,26.6,00.0,36.4,29.2,08.9,0000.0,0009.48,0003.35,0002.28
2021-10-23 10:41:00,,0819.9,5.00,0.00,27.3,26.6,00.0,36.4,29.2,08.9,0000.0,0010.12,0003.40,0002.27
2021-10-23 10:42:00,,0819.9,4.99,0.00,27.3,26.5,00.0,36.4,29.2,08.9,0000.0,0010.90,0003.44,0002.26
2021-10-23 10:43:00,,0820.0,5.00,0.00,27.3,26.5,00.0,36.4,29.1,08.8,0000.0,0011.20,0003.45,0002.26
2021-10-23 10:44:00,,0819.9,5.01,0.00,27.3,26.5,00.0,36.4,29.1,08.7,0000.0,0011.41,0003.46,0002.29
2021-10-23 10:45:00,,0819.9,5.01,0.00,27.3,26.5,00.0,36.4,29.1,08.6,0000.0,0011.50,0003.50,0002.32
2021-10-23 10:46:00,,0819.8,5.01,0.00,27.2,26.5,00.0,36.4,29.0,08.5,0000.0,0011.43,0003.52,0002.38
2021-10-23 10:47:00,,0819.8,5.00,0.00,27.2,26.4,00.0,36.4,29.0,07.9,0000.0,0012.07,0003.54,0002.38
2021-10-23 10:48:00,,0819.7,5.00,0.00,27.2,26.4,00.0,36.4,29.0,07.2,0000.0,0011.94,0003.45,0002.31
2021-10-23 10:49:00,,0819.6,5.00,0.00,27.2,26.4,00.0,36.3,29.0,07.2,0000.0,0011.20,0003.33,0002.19
2021-10-23 10:50:00,,0819.7,5.01,0.00,27.2,26.5,00.0,36.3,29.0,07.0,0000.0,0010.74,0003.24,0002.09
2021-10-23 10:51:00,,0819.8,5.00,0.00,27.2,26.5,00.0,36.3,29.1,06.7,0000.0,0009.88,0003.07,0001.94
2021-10-23 10:52:00,,0819.8,4.98,0.00,27.2,26.5,00.0,36.3,29.0,06.9,0000.0,0008.96,0002.73,0001.79
2021-10-23 10:53:00,,0819.6,5.02,0.00,27.2,26.5,00.0,36.3,29.0,07.8,0000.0,0008.59,0002.61,0001.69
2021-10-23 10:54:00,,0819.7,4.99,0.00,27.2,26.4,00.0,36.3,29.0,08.1,0000.0,0007.53,0002.50,0001.62
2021-10-23 10:55:00,,0819.6,5.02,0.00,27.2,26.4,00.0,36.3,29.0,08.3,0000.0,0006.63,0002.45,0001.57
2021-10-23 10:56:00,,0819.5,5.00,0.00,27.2,26.4,00.0,36.3,29.0,07.9,0000.0,0006.59,0002.33,0001.51
2021-10-23 10:57:00,,0819.5,4.98,0.00,27.2,26.4,00.0,36.3,29.0,08.1,0000.0,0006.62,0002.21,0001.45
2021-10-23 10:58:00,,0819.5,5.01,0.00,27.2,26.4,00.0,36.3,28.9,08.2,0000.0,0005.84,0002.21,0001.46
2021-10-23 10:59:00,,0819.5,5.01,0.00,27.2,26.4,00.0,36.3,29.0,08.3,0000.0,0006.35,0002.36,0001.53
